Wind_Speed
38 39 34 34 37 37 35 35 33 34 34 35 35 33 33 32 30 30 30 30 29 28 27 26 25 25 26 27 29 30 30 28 28 29 30 30 33 35 37 37 39 40 43 44
39 40 34 39 39 39 38 38 34 35 34 39 38 37 35 34 30 32 33 33 33 31 31 30 29 29 31 31 30 29 28 29 29 29 31 34 39 40 40 41 42 45 48 51
45 45 40 40 40 39 37 37 34 38 41 41 42 41 38 36 32 35 36 35 34 33 33 32 32 32 32 32 32 32 31 31 31 33 35 38 39 41 44 48 51 53 55 58
46 45 37 38 38 36 39 40 40 42 44 44 46 46 40 37 35 37 35 34 33 33 35 34 34 34 34 32 32 32 32 31 34 37 39 41 42 43 46 47 51 54 57 60
43 41 39 38 35 37 40 40 40 42 44 47 48 49 40 39 37 36 36 34 35 35 36 36 37 37 35 34 33 31 32 34 39 39 42 44 47 47 47 49 53 56 59 61
44 42 39 38 37 40 43 42 42 45 48 54 47 47 44 44 33 36 35 36 34 36 37 37 36 35 35 34 34 34 36 40 41 44 46 47 47 50 50 51 53 56 60 63
39 43 42 39 38 39 40 41 43 48 50 51 51 50 45 45 35 35 35 34 34 35 37 37 36 36 35 36 37 40 41 44 46 47 50 49 48 49 51 53 54 56 60 63
42 43 39 37 40 46 49 50 53 54 54 54 51 52 47 39 38 34 32 33 34 34 36 37 38 37 39 42 44 45 45 49 50 50 52 48 49 52 55 58 61 62 64 68
44 48 45 48 48 49 52 53 45 51 53 55 54 48 44 41 36 36 34 32 32 33 34 37 40 43 45 46 47 49 52 53 52 54 53 51 52 55 58 61 64 66 69 73
53 54 54 53 56 53 51 52 51 52 54 56 54 51 45 39 40 39 36 35 35 35 36 39 44 47 48 50 52 53 54 54 54 55 58 57 55 59 62 65 68 71 73 76
52 59 61 59 57 52 51 51 48 49 52 54 54 48 41 41 42 40 37 36 37 38 41 45 47 49 52 51 53 56 55 55 57 61 61 61 62 63 67 69 72 75 77 80
57 57 59 59 57 54 57 51 52 54 53 53 53 45 46 47 44 44 43 40 39 40 45 49 50 52 52 53 56 58 57 58 61 64 63 65 68 69 71 74 76 79 82 84
53 53 53 52 57 57 58 50 48 50 52 49 52 46 47 46 47 48 49 48 47 49 52 52 55 57 56 60 60 60 60 62 66 68 66 70 72 71 75 77 79 82 85 85
53 56 53 52 50 51 50 48 45 44 47 44 48 45 46 47 49 51 52 53 57 58 60 63 61 60 61 64 64 62 64 67 68 70 71 73 73 76 78 80 83 86 85 83
61 57 53 49 43 50 55 52 48 51 47 55 46 52 51 52 56 56 58 61 62 64 66 68 65 64 66 67 67 68 70 71 72 73 73 74 77 78 81 82 84 84 80 78
61 54 50 53 49 50 51 52 57 53 52 59 56 58 61 59 58 60 61 63 66 67 69 67 65 67 69 69 70 72 74 74 74 73 73 76 77 80 82 83 81 80 79 81
57 57 58 55 52 52 59 53 54 55 55 56 61 57 61 64 63 62 64 65 67 67 67 68 68 69 69 70 73 74 75 74 73 73 75 76 79 80 81 80 78 79 81 84
63 61 59 59 61 67 59 57 59 58 56 60 61 60 60 64 69 68 66 65 65 66 67 67 64 66 67 71 72 72 71 72 74 74 76 77 79 79 79 77 78 81 83 80
62 58 56 58 65 70 69 69 67 67 62 63 64 65 65 65 68 68 66 61 61 64 63 65 66 67 68 69 70 72 74 76 77 76 76 77 78 75 76 77 80 79 75 75
56 57 58 58 62 67 67 67 67 69 70 66 65 64 65 64 64 63 60 60 62 64 63 64 65 67 69 72 73 74 76 76 74 74 74 74 74 75 77 78 72 73 73 74
62 59 61 62 66 67 63 61 64 67 65 66 65 61 60 59 57 59 59 58 59 60 61 62 64 68 71 73 75 74 73 72 71 72 73 73 75 76 73 70 71 72 72 71
59 59 61 62 62 62 57 56 57 58 58 57 58 58 60 61 61 59 60 59 59 59 61 64 68 72 73 72 72 73 72 71 70 72 74 76 74 68 69 70 70 70 68 66
57 58 59 58 59 60 60 59 57 55 53 51 53 55 57 57 57 58 56 57 58 63 67 68 70 72 73 74 72 69 68 70 74 76 75 67 67 67 67 67 67 67 66 65
59 57 56 57 60 61 61 57 55 52 51 52 54 56 56 56 56 57 59 63 65 65 68 69 71 72 71 69 68 69 71 73 74 67 65 64 65 65 66 65 65 65 65 64
61 59 58 58 59 58 56 52 51 52 53 54 54 55 57 62 65 64 64 64 65 65 66 67 69 68 67 68 69 71 71 65 62 62 63 62 63 64 64 64 64 62 62 64
56 57 55 53 55 57 59 58 58 60 62 65 66 68 71 68 64 64 63 64 65 66 67 65 65 65 67 69 68 62 59 59 61 61 62 62 63 63 63 63 61 61 62 63
Wind_Direction
267 270 275 268 269 270 273 272 268 268 266 264 263 261 264 260 268 274 273 276 276 272 268 266 264 266 269 271 274 276 272 273 278 283 289 293 291 287 286 285 286 287 289 289
268 270 268 268 270 270 270 270 269 263 261 262 263 261 259 264 266 272 274 275 274 269 265 265 267 271 274 274 272 269 270 272 278 289 291 293 291 291 290 288 287 289 289 288
270 270 265 266 266 269 268 266 264 262 263 264 265 261 259 261 266 273 276 273 270 267 269 269 272 275 275 274 274 273 271 273 277 287 292 290 293 292 291 289 289 289 288 288
267 266 266 264 261 263 264 264 265 267 266 267 265 262 261 264 263 270 273 270 267 267 268 269 272 273 274 272 272 275 274 273 281 287 290 297 297 298 298 294 291 289 289 289
264 262 261 259 262 262 266 266 266 267 268 266 264 269 266 265 268 270 266 265 266 267 268 270 275 277 272 269 270 270 273 277 281 288 291 294 297 298 295 291 289 288 288 289
257 261 260 260 261 262 265 267 269 268 267 265 269 273 270 271 271 264 264 265 265 266 268 270 272 269 268 269 269 269 273 279 283 286 290 297 297 296 294 293 293 294 293 293
261 257 258 256 256 259 264 266 269 267 267 271 273 271 269 275 273 266 265 265 267 268 270 273 271 268 268 269 270 273 275 279 283 287 293 294 295 298 299 297 294 296 296 295
262 254 249 251 260 263 261 264 265 271 275 275 272 268 272 272 274 272 268 268 272 272 275 277 273 271 273 273 274 274 278 282 284 288 290 293 299 301 300 302 302 298 297 298
268 265 264 255 256 260 264 264 270 267 269 271 271 273 274 274 275 273 271 276 276 276 277 276 273 271 272 275 276 279 283 286 288 291 293 295 298 299 300 299 299 299 300 299
261 267 267 262 257 256 266 271 265 265 268 271 273 274 275 277 274 274 280 282 281 279 281 278 274 274 275 276 278 281 285 289 290 295 297 296 297 299 299 300 300 299 299 297
264 267 265 264 261 261 265 268 264 265 264 267 270 273 276 270 272 279 280 285 286 280 277 280 280 279 279 282 286 286 288 291 293 296 299 297 297 298 299 298 298 299 298 297
267 265 263 264 263 258 258 264 260 260 265 263 266 268 270 274 279 277 280 287 285 280 279 281 285 283 283 288 289 287 287 290 293 296 296 297 298 299 298 299 299 297 297 296
260 261 261 258 262 259 258 271 271 268 265 267 261 270 272 275 278 280 281 281 284 281 279 284 284 283 286 286 284 285 287 291 294 296 296 297 299 298 299 297 296 296 296 295
255 257 253 255 264 264 259 263 265 262 261 265 266 271 271 275 276 276 278 279 278 282 285 282 282 285 285 286 285 284 287 292 296 295 297 299 297 298 297 296 296 295 295 296
256 255 254 250 258 259 263 259 260 261 268 260 270 267 267 268 271 277 281 282 283 281 279 280 282 285 285 287 287 287 290 294 296 295 296 296 296 297 296 295 295 295 296 298
253 255 259 257 257 257 258 259 262 259 260 262 265 267 266 272 274 275 278 278 277 278 279 281 281 282 284 285 287 288 290 294 293 294 294 295 296 294 294 295 295 297 298 299
252 259 256 261 260 260 260 255 264 265 261 264 264 269 267 269 275 276 275 275 276 277 279 278 276 280 283 285 286 289 291 293 292 293 293 293 293 293 294 294 296 298 299 300
252 258 259 260 259 257 258 261 263 262 262 266 267 270 272 269 274 272 273 273 273 276 275 273 278 282 283 283 285 288 291 292 294 293 293 292 293 292 293 295 297 298 298 298
254 256 258 256 259 262 261 262 264 265 264 264 265 268 270 272 274 271 270 270 269 271 271 277 280 280 282 285 288 291 293 294 293 292 292 290 291 293 294 296 296 297 296 297
250 252 254 257 261 261 263 264 265 268 267 267 270 272 272 274 274 274 267 263 267 274 277 279 281 284 287 289 289 291 293 291 290 288 288 290 292 293 295 295 294 296 297 299
248 247 250 255 257 262 265 265 267 266 269 270 271 272 271 272 271 270 271 272 275 277 281 285 286 287 287 288 290 290 288 287 286 288 290 291 293 294 292 292 295 297 297 297
249 252 254 257 259 262 263 264 264 265 265 267 267 269 269 269 270 270 271 277 282 285 287 288 288 288 289 289 289 287 286 286 287 289 291 292 291 290 292 294 295 296 295 296
251 254 255 254 255 258 260 261 262 265 267 268 266 265 265 267 270 274 279 282 285 287 290 289 287 287 286 286 285 285 285 287 289 289 289 288 289 291 293 293 294 294 294 297
251 254 256 256 256 258 260 263 264 265 264 261 263 266 270 274 278 281 282 285 286 286 286 285 283 282 283 283 284 284 285 286 287 287 289 291 292 293 293 294 294 295 297 298
259 261 261 260 261 263 264 264 263 259 261 266 268 271 275 283 287 286 285 286 287 286 283 281 280 281 281 282 284 286 287 287 288 290 291 292 292 293 293 294 295 296 298 298
265 270 269 266 265 264 265 266 266 266 268 271 275 281 285 287 286 287 287 285 282 280 280 281 281 282 283 285 287 286 288 289 291 291 292 292 293 293 293 295 297 298 298 299
Height
5818 5819 5823 5821 5819 5820 5821 5821 5822 5820 5819 5817 5817 5819 5818 5820 5821 5821 5820 5820 5821 5821 5820 5820 5820 5820 5820 5819 5819 5820 5820 5820 5820 5819 5819 5819 5818 5816 5814 5812 5810 5807 5805 5803
5811 5811 5814 5812 5812 5812 5813 5813 5815 5812 5811 5808 5809 5810 5812 5811 5815 5813 5813 5813 5813 5813 5813 5812 5813 5812 5812 5812 5811 5811 5811 5812 5812 5813 5811 5811 5811 5809 5806 5804 5801 5798 5795 5791
5800 5801 5804 5804 5804 5804 5805 5804 5807 5804 5801 5800 5800 5800 5804 5806 5806 5806 5805 5805 5805 5806 5807 5807 5806 5806 5805 5804 5804 5803 5803 5803 5803 5804 5804 5803 5800 5798 5796 5794 5791 5788 5785 5781
5789 5790 5796 5795 5795 5796 5795 5795 5796 5796 5794 5793 5789 5788 5795 5798 5799 5798 5797 5797 5798 5798 5799 5799 5798 5798 5797 5797 5796 5796 5795 5796 5796 5795 5794 5793 5791 5789 5786 5783 5780 5777 5774 5770
5782 5783 5784 5786 5789 5787 5786 5787 5788 5786 5785 5782 5782 5780 5787 5790 5790 5790 5788 5789 5790 5790 5790 5790 5790 5791 5790 5789 5788 5787 5787 5787 5787 5786 5785 5783 5781 5778 5775 5772 5768 5764 5761 5758
5772 5773 5776 5778 5780 5778 5777 5778 5778 5776 5775 5767 5777 5777 5775 5776 5784 5780 5781 5781 5782 5782 5782 5781 5781 5780 5780 5780 5780 5779 5778 5778 5777 5776 5774 5771 5769 5766 5761 5757 5753 5750 5748 5743
5763 5763 5764 5767 5769 5769 5770 5770 5767 5764 5761 5762 5764 5765 5768 5766 5772 5773 5772 5773 5773 5773 5773 5773 5773 5771 5771 5770 5770 5769 5769 5767 5766 5763 5760 5756 5753 5751 5748 5745 5740 5736 5732 5727
5751 5754 5755 5758 5760 5758 5757 5758 5758 5754 5753 5753 5751 5750 5757 5761 5760 5762 5763 5764 5764 5764 5764 5764 5764 5763 5762 5761 5760 5759 5758 5756 5753 5750 5747 5742 5738 5735 5732 5729 5725 5720 5715 5711
5741 5740 5744 5748 5745 5746 5744 5743 5751 5744 5743 5739 5739 5743 5746 5749 5752 5751 5753 5754 5755 5755 5755 5755 5754 5753 5752 5751 5750 5749 5748 5744 5741 5738 5734 5728 5723 5719 5717 5714 5710 5704 5699 5694
5728 5727 5728 5731 5733 5734 5734 5736 5735 5734 5732 5729 5731 5732 5735 5739 5739 5740 5742 5743 5744 5745 5745 5744 5743 5742 5741 5740 5739 5737 5734 5731 5727 5722 5717 5712 5708 5704 5701 5698 5692 5686 5680 5674
5715 5715 5715 5715 5718 5725 5724 5721 5722 5722 5722 5720 5720 5724 5726 5725 5727 5730 5730 5732 5733 5734 5734 5733 5733 5732 5730 5728 5726 5721 5718 5714 5710 5707 5702 5698 5694 5689 5684 5679 5673 5667 5661 5654
5703 5700 5701 5702 5703 5707 5707 5709 5709 5707 5711 5712 5711 5715 5714 5714 5717 5718 5720 5720 5721 5721 5720 5719 5718 5716 5715 5713 5709 5706 5702 5699 5695 5691 5686 5683 5678 5673 5666 5661 5655 5648 5641 5633
5690 5687 5688 5691 5689 5689 5693 5701 5700 5701 5699 5702 5699 5704 5703 5706 5706 5707 5708 5709 5708 5708 5706 5705 5702 5701 5701 5697 5693 5690 5687 5684 5680 5675 5670 5665 5661 5654 5647 5640 5633 5627 5620 5613
5672 5671 5674 5676 5681 5679 5682 5685 5686 5685 5685 5689 5689 5694 5693 5695 5694 5694 5695 5696 5695 5694 5693 5689 5688 5687 5685 5681 5679 5675 5671 5667 5662 5657 5652 5647 5642 5634 5628 5621 5614 5607 5599 5593
5656 5657 5662 5668 5669 5668 5665 5669 5671 5670 5677 5671 5683 5679 5681 5682 5681 5683 5683 5682 5681 5679 5677 5674 5674 5672 5668 5665 5661 5657 5653 5650 5644 5639 5635 5629 5622 5616 5609 5602 5595 5586 5580 5573
5642 5644 5646 5649 5657 5655 5652 5656 5654 5658 5662 5659 5666 5667 5664 5669 5670 5669 5669 5667 5664 5663 5660 5660 5658 5655 5652 5649 5644 5640 5637 5633 5628 5623 5617 5610 5605 5597 5590 5583 5574 5568 5560 5554
5628 5631 5632 5633 5639 5638 5630 5645 5643 5645 5647 5649 5647 5659 5655 5651 5653 5653 5650 5649 5649 5648 5648 5645 5641 5639 5635 5632 5627 5624 5619 5615 5611 5606 5599 5592 5585 5579 5571 5564 5557 5549 5542 5534
5613 5617 5616 5618 5619 5610 5628 5628 5628 5629 5634 5632 5634 5639 5638 5637 5634 5636 5636 5635 5634 5632 5629 5627 5625 5622 5619 5614 5611 5606 5602 5598 5594 5587 5582 5573 5566 5560 5553 5547 5538 5531 5523 5517
5597 5600 5599 5598 5598 5600 5610 5613 5613 5612 5622 5619 5618 5618 5619 5619 5618 5621 5619 5618 5616 5615 5612 5610 5608 5604 5602 5597 5593 5589 5585 5581 5574 5568 5561 5554 5549 5543 5536 5528 5521 5513 5505 5498
5583 5584 5584 5584 5581 5580 5598 5594 5595 5592 5597 5603 5600 5603 5603 5601 5602 5607 5602 5598 5598 5597 5596 5594 5592 5587 5583 5579 5575 5571 5567 5560 5554 5548 5542 5536 5530 5524 5518 5510 5503 5497 5488 5479
5567 5568 5567 5570 5565 5566 5579 5577 5575 5575 5588 5586 5583 5584 5585 5587 5587 5586 5586 5583 5582 5581 5579 5576 5572 5569 5566 5562 5557 5552 5547 5541 5534 5529 5524 5519 5511 5505 5500 5493 5487 5478 5470 5462
5551 5552 5554 5555 5551 5552 5563 5561 5561 5565 5566 5567 5568 5570 5570 5569 5569 5569 5568 5567 5565 5562 5561 5559 5555 5551 5548 5545 5540 5534 5529 5521 5517 5512 5507 5500 5493 5487 5482 5475 5468 5460 5452 5445
5535 5538 5540 5542 5539 5541 5545 5545 5546 5549 5550 5551 5553 5553 5555 5554 5554 5553 5553 5551 5548 5546 5543 5541 5537 5533 5529 5525 5520 5516 5509 5503 5498 5493 5488 5482 5477 5470 5464 5456 5449 5441 5434 5428
5521 5523 5524 5526 5525 5526 5527 5527 5530 5531 5533 5534 5536 5537 5539 5539 5539 5538 5537 5535 5531 5528 5527 5524 5520 5515 5510 5504 5502 5497 5493 5487 5481 5474 5469 5463 5457 5452 5445 5438 5431 5424 5418 5412
5506 5507 5509 5508 5509 5512 5513 5512 5514 5517 5518 5520 5521 5521 5522 5523 5522 5520 5519 5517 5513 5510 5507 5504 5500 5497 5493 5488 5484 5478 5473 5467 5462 5457 5452 5446 5439 5433 5427 5421 5415 5409 5403 5396
5493 5492 5490 5488 5492 5496 5498 5498 5500 5503 5504 5504 5505 5505 5505 5504 5502 5500 5499 5496 5494 5490 5488 5484 5480 5478 5474 5469 5464 5459 5453 5449 5445 5439 5434 5428 5421 5415 5409 5403 5398 5393 5388 5382